When you browse on this site, cookies collect data to enhance your experience and personalize the content and advertising you see.
Visit our Privacy Policy to learn more. By continuing to use the site, you agree to this use of cookies and data.
  • In Austria
  • List of Countries
  • For 7 days
  • Water Temperature
  • Weather Map
  • News
  • Weather Widgets
  • user-avatar
    Login

    Hourly Weather Beja

    Today, 19 September, Thursday

    Time Temperature Precipitation Wind Pressure Humidity
    00:00 +16°C° 0 mm 2 mps 741 mmHg 91%
    01:00 +15°C° 0 mm 1 mps 741 mmHg 91%
    02:00 +15°C° 0 mm 1 mps 741 mmHg 92%
    03:00 +15°C° 0 mm 1 mps 741 mmHg 92%
    04:00 +15°C° 0 mm 1 mps 741 mmHg 92%
    05:00 +15°C° 0 mm 1 mps 741 mmHg 92%
    06:00 +18°C° 0 mm 1 mps 741 mmHg 82%
    07:00 +20°C° 0 mm 1 mps 742 mmHg 72%
    08:00 +21°C° 0 mm 2 mps 742 mmHg 62%
    09:00 +25°C° 0 mm 1 mps 742 mmHg 53%
    10:00 +27°C° 0 mm 1 mps 742 mmHg 44%
    11:00 +29°C° 0 mm 1 mps 742 mmHg 35%
    12:00 +30°C° 0 mm 2 mps 741 mmHg 32%
    13:00 +31°C° 0 mm 2 mps 741 mmHg 29%
    14:00 +31°C° 0 mm 2 mps 741 mmHg 26%
    15:00 +29°C° 0 mm 3 mps 740 mmHg 34%
    16:00 +27°C° 0 mm 4 mps 740 mmHg 42%
    17:00 +24°C° 0 mm 6 mps 740 mmHg 50%
    18:00 +22°C° 0 mm 5 mps 740 mmHg 60%
    19:00 +20°C° 0 mm 4 mps 740 mmHg 70%
    20:00 +18°C° 0 mm 3 mps 741 mmHg 79%
    21:00 +17°C° 0 mm 3 mps 740 mmHg 83%
    22:00 +17°C° 0 mm 2 mps 740 mmHg 87%
    23:00 +16°C° 0 mm 2 mps 740 mmHg 92%

    Tomorrow, 20 September, Friday

    Time Temperature Precipitation Wind Pressure Humidity
    00:00 +16°C° 0 mm 2 mps 740 mmHg 92%
    01:00 +15°C° 0 mm 1 mps 739 mmHg 92%
    02:00 +15°C° 0 mm 1 mps 739 mmHg 93%
    03:00 +15°C° 0 mm 1 mps 739 mmHg 93%
    04:00 +15°C° 0 mm 1 mps 739 mmHg 93%
    05:00 +15°C° 0 mm 1 mps 739 mmHg 93%
    06:00 +18°C° 0 mm 1 mps 739 mmHg 84%
    07:00 +20°C° 0 mm 1 mps 740 mmHg 74%
    08:00 +21°C° 0 mm 1 mps 740 mmHg 65%
    09:00 +24°C° 0 mm 1 mps 740 mmHg 56%
    10:00 +26°C° 0 mm 1 mps 740 mmHg 47%
    11:00 +28°C° 0 mm 2 mps 740 mmHg 38%
    12:00 +29°C° 0 mm 2 mps 740 mmHg 35%
    13:00 +30°C° 0 mm 3 mps 739 mmHg 31%
    14:00 +31°C° 0 mm 3 mps 739 mmHg 28%
    15:00 +29°C° 0 mm 4 mps 739 mmHg 34%
    16:00 +27°C° 0 mm 5 mps 738 mmHg 40%
    17:00 +25°C° 0 mm 5 mps 738 mmHg 45%
    18:00 +22°C° 0 mm 4 mps 738 mmHg 58%
    19:00 +20°C° 0 mm 3 mps 739 mmHg 71%
    20:00 +18°C° 0 mm 2 mps 739 mmHg 84%
    21:00 +17°C° 0 mm 2 mps 739 mmHg 87%
    22:00 +18°C° 0 mm 1 mps 738 mmHg 90%
    23:00 +18°C° 0 mm 1 mps 738 mmHg 94%

    Day after tomorrow, 21 September, Saturday

    Time Temperature Precipitation Wind Pressure Humidity
    00:00 +17°C° 0 mm 2 mps 738 mmHg 93%
    01:00 +17°C° 0 mm 2 mps 738 mmHg 92%
    02:00 +17°C° 0 mm 2 mps 737 mmHg 91%
    03:00 +17°C° 0 mm 3 mps 737 mmHg 90%
    04:00 +18°C° 0 mm 3 mps 737 mmHg 88%
    05:00 +18°C° 0 mm 4 mps 737 mmHg 87%
    06:00 +19°C° 0 mm 4 mps 737 mmHg 83%
    07:00 +20°C° 0 mm 5 mps 737 mmHg 80%
    08:00 +21°C° 0 mm 6 mps 737 mmHg 76%
    09:00 +23°C° 0.2 mm 6 mps 737 mmHg 69%
    10:00 +24°C° 0.2 mm 6 mps 737 mmHg 62%
    11:00 +26°C° 0.2 mm 6 mps 737 mmHg 56%
    12:00 +24°C° 0.5 mm 6 mps 737 mmHg 62%
    13:00 +23°C° 0.5 mm 6 mps 737 mmHg 67%
    14:00 +22°C° 0.5 mm 6 mps 737 mmHg 73%
    15:00 +21°C° 0.3 mm 5 mps 737 mmHg 74%
    16:00 +20°C° 0.3 mm 5 mps 737 mmHg 75%
    17:00 +19°C° 0.3 mm 4 mps 738 mmHg 76%
    18:00 +18°C° 0 mm 4 mps 738 mmHg 79%
    19:00 +17°C° 0 mm 3 mps 739 mmHg 82%
    20:00 +16°C° 0 mm 3 mps 739 mmHg 85%
    21:00 +15°C° 0 mm 2 mps 739 mmHg 86%
    22:00 +15°C° 0 mm 2 mps 739 mmHg 88%
    23:00 +14°C° 0 mm 2 mps 739 mmHg 89%

    22 September, Sunday

    Time Temperature Precipitation Wind Pressure Humidity
    00:00 +14°C° 0 mm 1 mps 740 mmHg 90%
    01:00 +14°C° 0 mm 1 mps 740 mmHg 91%
    02:00 +14°C° 0 mm 1 mps 740 mmHg 92%
    03:00 +14°C° 0 mm 1 mps 740 mmHg 93%
    04:00 +14°C° 0 mm 1 mps 740 mmHg 93%
    05:00 +13°C° 0 mm 1 mps 741 mmHg 94%
    06:00 +15°C° 0 mm 1 mps 741 mmHg 85%
    07:00 +17°C° 0 mm 2 mps 742 mmHg 76%
    08:00 +18°C° 0 mm 3 mps 742 mmHg 67%
    09:00 +20°C° 0 mm 3 mps 743 mmHg 58%
    10:00 +21°C° 0 mm 3 mps 743 mmHg 49%
    11:00 +22°C° 0 mm 3 mps 743 mmHg 41%
    12:00 +24°C° 0 mm 3 mps 743 mmHg 36%
    13:00 +25°C° 0 mm 3 mps 743 mmHg 32%
    14:00 +26°C° 0 mm 3 mps 742 mmHg 28%
    15:00 +25°C° 0 mm 3 mps 742 mmHg 31%
    16:00 +24°C° 0 mm 3 mps 743 mmHg 35%
    17:00 +22°C° 0 mm 4 mps 743 mmHg 39%
    18:00 +20°C° 0 mm 4 mps 743 mmHg 48%
    19:00 +18°C° 0 mm 3 mps 743 mmHg 57%
    20:00 +17°C° 0 mm 3 mps 743 mmHg 66%
    21:00 +16°C° 0 mm 3 mps 743 mmHg 69%
    22:00 +16°C° 0 mm 3 mps 743 mmHg 73%
    23:00 +15°C° 0 mm 2 mps 743 mmHg 77%

    23 September, Monday

    Time Temperature Precipitation Wind Pressure Humidity
    00:00 +15°C° 0 mm 2 mps 743 mmHg 79%
    01:00 +14°C° 0 mm 2 mps 743 mmHg 81%
    02:00 +14°C° 0 mm 1 mps 743 mmHg 83%
    03:00 +14°C° 0 mm 1 mps 743 mmHg 82%
    04:00 +14°C° 0 mm 1 mps 743 mmHg 80%
    05:00 +14°C° 0 mm 1 mps 743 mmHg 79%
    06:00 +16°C° 0 mm 2 mps 744 mmHg 70%
    07:00 +18°C° 0 mm 2 mps 744 mmHg 60%
    08:00 +20°C° 0 mm 2 mps 744 mmHg 51%
    09:00 +23°C° 0 mm 2 mps 744 mmHg 43%
    10:00 +25°C° 0 mm 2 mps 744 mmHg 35%
    11:00 +27°C° 0 mm 2 mps 744 mmHg 27%
    12:00 +28°C° 0 mm 2 mps 744 mmHg 25%
    13:00 +29°C° 0 mm 2 mps 743 mmHg 23%
    14:00 +30°C° 0 mm 2 mps 743 mmHg 21%
    15:00 +29°C° 0 mm 2 mps 743 mmHg 23%
    16:00 +28°C° 0 mm 2 mps 743 mmHg 26%
    17:00 +27°C° 0 mm 2 mps 742 mmHg 28%
    18:00 +25°C° 0 mm 3 mps 743 mmHg 37%
    19:00 +21°C° 0 mm 3 mps 743 mmHg 46%
    20:00 +19°C° 0 mm 3 mps 743 mmHg 55%
    21:00 +18°C° 0 mm 3 mps 743 mmHg 60%
    22:00 +18°C° 0 mm 2 mps 743 mmHg 64%
    23:00 +17°C° 0 mm 2 mps 742 mmHg 69%

    24 September, Tuesday

    Time Temperature Precipitation Wind Pressure Humidity
    00:00 +17°C° 0 mm 2 mps 742 mmHg 70%
    01:00 +16°C° 0 mm 2 mps 742 mmHg 71%
    02:00 +16°C° 0 mm 2 mps 742 mmHg 71%
    03:00 +16°C° 0 mm 1 mps 742 mmHg 72%
    04:00 +15°C° 0 mm 1 mps 742 mmHg 73%
    05:00 +15°C° 0 mm 1 mps 742 mmHg 74%
    06:00 +18°C° 0 mm 1 mps 742 mmHg 64%
    07:00 +21°C° 0 mm 1 mps 742 mmHg 55%
    08:00 +23°C° 0 mm 1 mps 743 mmHg 45%
    09:00 +25°C° 0 mm 1 mps 743 mmHg 38%
    10:00 +28°C° 0 mm 1 mps 743 mmHg 31%
    11:00 +30°C° 0 mm 2 mps 743 mmHg 25%
    12:00 +31°C° 0 mm 2 mps 742 mmHg 23%
    13:00 +31°C° 0 mm 3 mps 742 mmHg 21%
    14:00 +33°C° 0 mm 4 mps 741 mmHg 19%
    15:00 +30°C° 0 mm 4 mps 741 mmHg 26%
    16:00 +27°C° 0 mm 5 mps 741 mmHg 34%
    17:00 +24°C° 0 mm 6 mps 741 mmHg 41%
    18:00 +22°C° 0 mm 5 mps 741 mmHg 53%
    19:00 +20°C° 0 mm 4 mps 741 mmHg 65%
    20:00 +18°C° 0 mm 4 mps 742 mmHg 77%
    21:00 +17°C° 0 mm 3 mps 741 mmHg 83%
    22:00 +16°C° 0 mm 2 mps 741 mmHg 88%
    23:00 +16°C° 0 mm 2 mps 741 mmHg 94%
    Show more